Wooster, OH

9:42 PM EST on December 14, 2019 (GMT -0500)
Wayne County

Weather History for KBJJ - October, 2019

Change the Weather History Date:

Saturday, October 19, 2019

  Actual Average Record
Temperature  
Mean Temperature 46 °F -  
Max Temperature 63 °F 58 °F 73 °F (2005)
Min Temperature 30 °F 36 °F 26 °F (2015)
Degree Days  
Heating Degree Days 18    
Moisture  
Dew Point 36 °F    
Average Humidity 80    
Maximum Humidity 100    
Minimum Humidity 40    
Precipitation  
Precipitation 0.00 in - - ()
Sea Level Pressure  
Sea Level Pressure 29.99 in    
Wind  
Wind Speed 2 mph (SE)    
Max Wind Speed 10 mph    
Max Gust Speed -    
Visibility 8 miles    
Events Fog , Rain    
Averages and records for this station are not official NWS values.
T = Trace of Precipitation, MM = Missing Value Source: NWS Daily Summary

Daily Weather History Graph

Daily Weather History Graph

Search for Another Location

Airport or City:

Astronomy

Oct. 19, 2019 Rise Set
Actual Time 7:43 AM EDT 6:41 PM EDT
Civil Twilight 7:15 AM EDT 7:09 PM EDT
Nautical Twilight 6:43 AM EDT 7:41 PM EDT
Astronomical Twilight 6:11 AM EDT 8:12 PM EDT
Moon 10:47 PM EDT (10/19) 1:15 PM EDT (10/19)
Length of Visible Light 11h 53m
Length of Day
10h 58m
Waning Gibbous, 70% of the Moon is Illuminated
Oct 19
Waning Gibbous
Oct 21
Last Quarter
Oct 27
New
Nov 4
First Quarter
Nov 12
Full

Hourly Weather History & Observations

Time (EDT) Temp. Windchill Dew Point Humidity Pressure Visibility Wind Dir Wind Speed Gust Speed Precip Events Conditions
12:56 AM 34.0 °F - 32.0 °F 92% 30.06 in 9.0 mi Calm Calm - N/A   Clear
1:56 AM 33.1 °F - 30.9 °F 92% 30.06 in 10.0 mi Calm Calm - N/A   Clear
2:56 AM 33.1 °F - 30.9 °F 92% 30.06 in 10.0 mi Calm Calm - N/A   Clear
3:56 AM 32.0 °F - 30.9 °F 96% 30.06 in 10.0 mi Calm Calm - N/A   Clear
4:56 AM 32.0 °F - 30.9 °F 96% 30.04 in 6.0 mi Calm Calm - N/A   Clear
5:56 AM 33.1 °F 30.0 °F 32.0 °F 96% 30.05 in 7.0 mi ESE 3.5 mph - N/A   Clear
6:56 AM 32.0 °F - 30.0 °F 92% 30.06 in 6.0 mi Calm Calm - N/A   Clear
7:48 AM 30.9 °F - 28.9 °F 92% 30.03 in 1.2 mi Calm Calm - N/A   Clear
7:50 AM 30.2 °F - 28.4 °F 93% 30.03 in 0.8 mi Calm Calm - N/A   Clear
7:56 AM 30.9 °F - 30.0 °F 96% 30.06 in 0.5 mi Calm Calm - N/A Fog Light Freezing Fog
8:02 AM 30.9 °F - 30.0 °F 96% 30.04 in 2.0 mi Calm Calm - N/A   Clear
8:14 AM 32.0 °F - 32.0 °F 100% 30.04 in 4.0 mi Calm Calm - N/A   Clear
8:56 AM 37.0 °F - 36.0 °F 96% 30.06 in 6.0 mi Calm Calm - N/A   Clear
9:56 AM 45.0 °F 43.5 °F 39.9 °F 82% 30.05 in 10.0 mi Variable 3.5 mph - N/A   Clear
10:56 AM 52.0 °F - 42.1 °F 69% 30.04 in 10.0 mi Variable 5.8 mph - N/A   Clear
11:56 AM 57.0 °F - 39.9 °F 53% 30.01 in 10.0 mi SE 10.4 mph - N/A   Clear
12:56 PM 57.9 °F - 39.0 °F 49% 30.00 in 10.0 mi SSE 10.4 mph - N/A   Clear
1:56 PM 59.0 °F - 39.9 °F 49% 29.97 in 10.0 mi SSE 8.1 mph - N/A   Clear
2:56 PM 62.1 °F - 39.0 °F 43% 29.94 in 10.0 mi SE 9.2 mph - N/A   Clear
3:56 PM 63.0 °F - 37.9 °F 40% 29.93 in 10.0 mi SSE 8.1 mph - N/A   Clear
4:56 PM 62.1 °F - 37.9 °F 41% 29.92 in 10.0 mi SSE 8.1 mph - N/A   Clear
5:56 PM 60.1 °F - 39.9 °F 47% 29.91 in 10.0 mi SE 4.6 mph - N/A   Clear
6:56 PM 50.0 °F - 45.0 °F 83% 29.90 in 10.0 mi Calm Calm - 0.00 in Rain Light Rain
7:56 PM 46.0 °F - 43.0 °F 89% 29.91 in 10.0 mi Calm Calm - 0.00 in   Clear
8:56 PM 45.0 °F - 42.1 °F 90% 29.89 in 10.0 mi Calm Calm - N/A   Clear
9:56 PM 43.0 °F - 39.9 °F 89% 29.89 in 10.0 mi Calm Calm - N/A   Clear
10:56 PM 39.9 °F - 37.9 °F 93% 29.88 in 10.0 mi Calm Calm - N/A   Clear
11:56 PM 39.0 °F - 37.0 °F 93% 29.87 in 10.0 mi Calm Calm - N/A   Clear